EZY6J EGKK-EHAM

Flight info

Callsign EZY6J
Flight time 0h 53m
Altitude 29000
Route FRANE M604 GASBA M197 REDFA
Aircraft A320/M-SDE3FGHIRWY/LB1

Departure

Time 2026-05-04 14:33
Airport London Gatwick Airport (EGKK)

Arrival

Time 2026-05-04 15:26
Airport Amsterdam Airport Schiphol (EHAM)
Time Latitude Longitude Altitude Speed Heading
2026-05-04 14:00 51.16058 -0.18008 205 ft 0 kts 78°
2026-05-04 14:19 51.16056 -0.18022 205 ft 4 kts 78°
2026-05-04 14:19 51.16050 -0.18064 215 ft 4 kts 77°
2026-05-04 14:20 51.16045 -0.18099 212 ft 4 kts 80°
2026-05-04 14:20 51.16046 -0.18138 216 ft 4 kts 124°
2026-05-04 14:20 51.16065 -0.18160 214 ft 4 kts 166°
2026-05-04 14:21 51.16099 -0.18172 214 ft 0 kts 168°
2026-05-04 14:23 51.16096 -0.18171 215 ft 2 kts 168°
2026-05-04 14:23 51.16063 -0.18159 213 ft 8 kts 167°
2026-05-04 14:23 51.15997 -0.18136 209 ft 10 kts 167°
2026-05-04 14:24 51.15936 -0.18114 214 ft 8 kts 167°
2026-05-04 14:24 51.15884 -0.18095 210 ft 7 kts 167°
2026-05-04 14:24 51.15839 -0.18079 205 ft 7 kts 167°
2026-05-04 14:24 51.15778 -0.18057 206 ft 11 kts 167°
2026-05-04 14:25 51.15695 -0.18061 209 ft 12 kts 222°
2026-05-04 14:25 51.15657 -0.18280 209 ft 9 kts 257°
2026-05-04 14:25 51.15644 -0.18373 209 ft 8 kts 257°
2026-05-04 14:26 51.15633 -0.18452 215 ft 7 kts 257°
2026-05-04 14:26 51.15615 -0.18576 212 ft 21 kts 258°
2026-05-04 14:26 51.15570 -0.18812 205 ft 22 kts 223°
2026-05-04 14:26 51.15427 -0.18789 205 ft 22 kts 168°
2026-05-04 14:27 51.15274 -0.18736 205 ft 21 kts 167°
2026-05-04 14:27 51.15214 -0.18715 205 ft 0 kts 167°
2026-05-04 14:27 51.15207 -0.18712 205 ft 4 kts 167°
2026-05-04 14:27 51.15155 -0.18708 205 ft 11 kts 197°
2026-05-04 14:28 51.15115 -0.18844 215 ft 17 kts 258°
2026-05-04 14:28 51.15086 -0.19064 216 ft 24 kts 258°
2026-05-04 14:28 51.15048 -0.19341 205 ft 26 kts 257°
2026-05-04 14:28 51.15007 -0.19635 205 ft 28 kts 258°
2026-05-04 14:29 51.14920 -0.20268 205 ft 26 kts 257°
2026-05-04 14:29 51.14892 -0.20466 207 ft 0 kts 257°
2026-05-04 14:30 51.14846 -0.20798 205 ft 25 kts 258°
2026-05-04 14:31 51.14809 -0.21070 213 ft 26 kts 257°
2026-05-04 14:31 51.14652 -0.21356 213 ft 16 kts 151°
2026-05-04 14:32 51.14518 -0.21186 210 ft 11 kts 88°
2026-05-04 14:32 51.14535 -0.21066 209 ft 11 kts 76°
2026-05-04 14:32 51.14574 -0.20804 209 ft 55 kts 76°
2026-05-04 14:32 51.14705 -0.19850 208 ft 119 kts 78°
2026-05-04 14:33 51.14923 -0.18280 221 ft 167 kts 76°
2026-05-04 14:33 51.15169 -0.16410 648 ft 181 kts 78°
2026-05-04 14:33 51.15432 -0.14457 1464 ft 180 kts 78°
2026-05-04 14:33 51.15712 -0.12423 1931 ft 198 kts 77°
2026-05-04 14:34 51.16025 -0.10156 2219 ft 223 kts 77°
2026-05-04 14:34 51.16377 -0.07607 2643 ft 247 kts 77°
2026-05-04 14:34 51.16755 -0.04866 3370 ft 257 kts 78°
2026-05-04 14:34 51.16880 -0.01995 4243 ft 263 kts 91°
2026-05-04 14:35 51.16835 0.00921 4793 ft 269 kts 91°
2026-05-04 14:35 51.16781 0.03898 4948 ft 269 kts 91°
2026-05-04 14:35 51.16721 0.06875 4981 ft 269 kts 91°
2026-05-04 14:35 51.16659 0.09858 4984 ft 269 kts 90°
2026-05-04 14:36 51.16600 0.12828 4981 ft 269 kts 91°
2026-05-04 14:36 51.16545 0.15792 4985 ft 269 kts 90°
2026-05-04 14:36 51.16527 0.18771 4982 ft 269 kts 89°
2026-05-04 14:36 51.16532 0.21746 4983 ft 269 kts 89°
2026-05-04 14:37 51.16546 0.24722 4985 ft 269 kts 88°
2026-05-04 14:37 51.16560 0.27696 4984 ft 269 kts 88°
2026-05-04 14:37 51.16571 0.30637 4984 ft 269 kts 89°
2026-05-04 14:37 51.16580 0.33613 4982 ft 269 kts 89°
2026-05-04 14:38 51.16586 0.36586 4984 ft 269 kts 89°
2026-05-04 14:38 51.16589 0.39559 4982 ft 269 kts 89°
2026-05-04 14:38 51.16589 0.42540 4982 ft 269 kts 89°
2026-05-04 14:38 51.16587 0.45518 4982 ft 269 kts 89°
2026-05-04 14:39 51.16589 0.48492 5030 ft 265 kts 86°
2026-05-04 14:39 51.16942 0.51217 6108 ft 243 kts 66°
2026-05-04 14:39 51.17761 0.53487 7040 ft 239 kts 49°
2026-05-04 14:40 51.20626 0.56142 8302 ft 257 kts 11°
2026-05-04 14:40 51.22450 0.56805 8680 ft 279 kts 12°
2026-05-04 14:40 51.24372 0.57502 9369 ft 287 kts 12°
2026-05-04 14:40 51.26339 0.58222 10126 ft 293 kts 12°
2026-05-04 14:41 51.28340 0.58959 10868 ft 297 kts 13°
2026-05-04 14:41 51.30365 0.59710 11636 ft 301 kts 12°
2026-05-04 14:41 51.34491 0.61249 13112 ft 310 kts 13°
2026-05-04 14:42 51.38720 0.62835 14491 ft 318 kts 12°
2026-05-04 14:42 51.40941 0.63672 14709 ft 339 kts 13°
2026-05-04 14:42 51.43309 0.64568 14848 ft 360 kts 13°
2026-05-04 14:43 51.45815 0.65520 15000 ft 379 kts 13°
2026-05-04 14:43 51.48412 0.66507 15481 ft 386 kts 13°
2026-05-04 14:43 51.51047 0.67509 16059 ft 391 kts 13°
2026-05-04 14:43 51.53673 0.68508 16651 ft 395 kts 13°
2026-05-04 14:44 51.56360 0.69528 17260 ft 399 kts 13°
2026-05-04 14:44 51.59072 0.70562 17859 ft 403 kts 13°
2026-05-04 14:44 51.61814 0.71609 18429 ft 407 kts 13°
2026-05-04 14:44 51.64581 0.72666 18956 ft 411 kts 13°
2026-05-04 14:45 51.67369 0.73732 19491 ft 414 kts 13°
2026-05-04 14:45 51.70180 0.74804 20021 ft 417 kts 13°
2026-05-04 14:45 51.73012 0.75885 20538 ft 420 kts 13°
2026-05-04 14:45 51.75897 0.76601 21027 ft 421 kts 358°
2026-05-04 14:46 51.78708 0.75695 21496 ft 419 kts 335°
2026-05-04 14:46 51.81116 0.73114 21973 ft 416 kts 312°
2026-05-04 14:46 51.82865 0.69416 22470 ft 415 kts 303°
2026-05-04 14:46 51.84823 0.65967 22942 ft 422 kts 322°
2026-05-04 14:47 51.87472 0.63873 23394 ft 430 kts 342°
2026-05-04 14:47 51.90436 0.63117 23808 ft 436 kts 357°
2026-05-04 14:47 51.93461 0.63663 24161 ft 442 kts 14°
2026-05-04 14:47 51.96283 0.65654 24496 ft 446 kts 33°
2026-05-04 14:48 51.98590 0.68925 24823 ft 449 kts 51°
2026-05-04 14:48 52.00217 0.73234 25149 ft 450 kts 69°
2026-05-04 14:48 52.00991 0.78136 25467 ft 450 kts 86°
2026-05-04 14:48 52.01009 0.83210 25789 ft 450 kts 93°
2026-05-04 14:49 52.00918 0.88304 26112 ft 452 kts 94°
2026-05-04 14:49 52.00820 0.93417 26443 ft 454 kts 94°
2026-05-04 14:49 52.00716 0.98545 26753 ft 456 kts 94°
2026-05-04 14:49 52.00607 1.03714 27045 ft 459 kts 94°
2026-05-04 14:50 52.00499 1.08892 27359 ft 461 kts 94°
2026-05-04 14:50 52.00394 1.14039 27655 ft 463 kts 94°
2026-05-04 14:50 52.00286 1.19273 27936 ft 465 kts 94°
2026-05-04 14:50 52.00175 1.24518 28213 ft 466 kts 94°
2026-05-04 14:51 52.00062 1.29786 28490 ft 468 kts 94°
2026-05-04 14:51 51.99946 1.35065 28742 ft 470 kts 94°
2026-05-04 14:51 51.99826 1.40371 28969 ft 470 kts 94°
2026-05-04 14:51 51.99702 1.45653 29026 ft 467 kts 94°
2026-05-04 14:52 51.99448 1.56052 29023 ft 463 kts 95°
2026-05-04 14:52 51.99295 1.66483 29022 ft 464 kts 89°
2026-05-04 14:53 52.00492 1.76808 29021 ft 468 kts 78°
2026-05-04 14:53 52.02093 1.87067 28932 ft 469 kts 78°
2026-05-04 14:54 52.02887 1.92195 28644 ft 468 kts 78°
2026-05-04 14:54 52.03678 1.97324 28363 ft 470 kts 78°
2026-05-04 14:54 52.04467 2.02482 28087 ft 472 kts 78°
2026-05-04 14:54 52.05256 2.07658 27817 ft 473 kts 78°
2026-05-04 14:55 52.06039 2.12782 27553 ft 473 kts 78°
2026-05-04 14:55 52.06833 2.17976 27288 ft 474 kts 78°
2026-05-04 14:55 52.07625 2.23175 26942 ft 473 kts 78°
2026-05-04 14:55 52.08411 2.28355 26083 ft 471 kts 77°
2026-05-04 14:56 52.09188 2.33504 25309 ft 467 kts 77°
2026-05-04 14:56 52.09954 2.38620 24532 ft 464 kts 77°
2026-05-04 14:56 52.10713 2.43702 23768 ft 462 kts 76°
2026-05-04 14:56 52.11688 2.48666 22945 ft 459 kts 67°
2026-05-04 14:57 52.13115 2.53264 22519 ft 453 kts 59°
2026-05-04 14:57 52.14698 2.57609 22096 ft 450 kts 59°
2026-05-04 14:57 52.16283 2.61992 21660 ft 447 kts 59°
2026-05-04 14:57 52.17844 2.66333 21227 ft 443 kts 59°
2026-05-04 14:58 52.19398 2.70658 20802 ft 440 kts 59°
2026-05-04 14:58 52.20934 2.74941 20367 ft 436 kts 59°
2026-05-04 14:58 52.22460 2.79190 19939 ft 433 kts 59°
2026-05-04 14:58 52.23463 2.81981 19662 ft 430 kts 60°
2026-05-04 14:59 52.25159 2.87860 19301 ft 427 kts 67°
2026-05-04 14:59 52.26311 2.92325 19069 ft 426 kts 67°
2026-05-04 14:59 52.28594 3.01212 18587 ft 422 kts 67°
2026-05-04 15:00 52.29716 3.05600 18353 ft 420 kts 68°
2026-05-04 15:00 52.30832 3.09970 18093 ft 419 kts 68°
2026-05-04 15:00 52.31952 3.14357 17821 ft 417 kts 68°
2026-05-04 15:01 52.34165 3.23075 17295 ft 414 kts 68°
2026-05-04 15:01 52.35264 3.27416 17034 ft 412 kts 68°
2026-05-04 15:01 52.36362 3.31745 16769 ft 411 kts 67°
2026-05-04 15:01 52.37456 3.36056 16512 ft 410 kts 67°
2026-05-04 15:02 52.38541 3.40355 16249 ft 408 kts 68°
2026-05-04 15:02 52.39605 3.44590 15995 ft 407 kts 68°
2026-05-04 15:02 52.40678 3.48865 15741 ft 406 kts 68°
2026-05-04 15:02 52.41702 3.53163 15492 ft 405 kts 73°
2026-05-04 15:03 52.42139 3.57686 15233 ft 402 kts 90°
2026-05-04 15:03 52.41766 3.62196 14985 ft 399 kts 108°
2026-05-04 15:03 52.40831 3.66472 14749 ft 399 kts 111°
2026-05-04 15:03 52.39855 3.70713 14501 ft 397 kts 111°
2026-05-04 15:04 52.38871 3.74931 14259 ft 394 kts 112°
2026-05-04 15:04 52.37904 3.79046 14003 ft 378 kts 112°
2026-05-04 15:04 52.36993 3.82925 13763 ft 354 kts 111°
2026-05-04 15:04 52.36140 3.86580 13486 ft 333 kts 111°
2026-05-04 15:05 52.35343 3.90002 13236 ft 322 kts 111°
2026-05-04 15:05 52.34552 3.93398 12973 ft 317 kts 112°
2026-05-04 15:05 52.33771 3.96742 12702 ft 313 kts 112°
2026-05-04 15:05 52.32993 4.00055 12441 ft 310 kts 112°
2026-05-04 15:06 52.32222 4.03338 12184 ft 308 kts 112°
2026-05-04 15:06 52.31459 4.06594 11928 ft 306 kts 112°
2026-05-04 15:06 52.30696 4.09840 11676 ft 305 kts 112°
2026-05-04 15:07 52.29169 4.16326 10731 ft 304 kts 112°
2026-05-04 15:07 52.28428 4.19467 10164 ft 298 kts 112°
2026-05-04 15:07 52.27451 4.22379 9544 ft 289 kts 134°
2026-05-04 15:07 52.25871 4.24269 8910 ft 280 kts 158°
2026-05-04 15:08 52.24062 4.25414 8292 ft 278 kts 162°
2026-05-04 15:08 52.22238 4.26432 7688 ft 276 kts 162°
2026-05-04 15:08 52.20427 4.27442 7100 ft 276 kts 162°
2026-05-04 15:08 52.18590 4.28456 6506 ft 281 kts 162°
2026-05-04 15:09 52.16726 4.29471 5884 ft 281 kts 162°
2026-05-04 15:09 52.14886 4.30473 5466 ft 277 kts 162°
2026-05-04 15:09 52.13096 4.31566 5067 ft 275 kts 150°
2026-05-04 15:10 52.11096 4.36493 4250 ft 271 kts 94°
2026-05-04 15:10 52.11367 4.39447 3842 ft 260 kts 65°
2026-05-04 15:10 52.13924 4.42937 3030 ft 235 kts 26°
2026-05-04 15:11 52.15377 4.44169 2622 ft 236 kts 26°
2026-05-04 15:11 52.16842 4.45413 2223 ft 238 kts 26°
2026-05-04 15:11 52.18228 4.46809 2011 ft 230 kts 41°
2026-05-04 15:11 52.19226 4.48718 2018 ft 221 kts 53°
2026-05-04 15:12 52.19796 4.50122 2016 ft 219 kts 57°
2026-05-04 15:12 52.20585 4.52166 2010 ft 205 kts 56°
2026-05-04 15:12 52.21551 4.54668 2032 ft 190 kts 56°
2026-05-04 15:12 52.22254 4.56483 2041 ft 188 kts 56°
2026-05-04 15:13 52.22949 4.58277 2023 ft 186 kts 56°
2026-05-04 15:13 52.23405 4.59454 1969 ft 186 kts 56°
2026-05-04 15:13 52.24128 4.61322 1770 ft 200 kts 56°
2026-05-04 15:13 52.24864 4.63225 1503 ft 202 kts 55°
2026-05-04 15:14 52.25610 4.65160 1231 ft 195 kts 56°
2026-05-04 15:14 52.26318 4.66996 992 ft 190 kts 54°
2026-05-04 15:14 52.27008 4.68785 728 ft 184 kts 56°
2026-05-04 15:14 52.27707 4.70664 1216 ft 204 kts 56°
2026-05-04 15:15 52.28466 4.72790 1804 ft 227 kts 57°
2026-05-04 15:15 52.29305 4.75103 2435 ft 246 kts 58°
2026-05-04 15:15 52.30221 4.77568 2891 ft 261 kts 58°
2026-05-04 15:16 52.32131 4.82665 3008 ft 263 kts 58°
2026-05-04 15:16 52.33088 4.85218 3009 ft 263 kts 58°
2026-05-04 15:16 52.34812 4.90456 3009 ft 263 kts 77°
2026-05-04 15:17 52.34765 4.93383 3012 ft 264 kts 107°
2026-05-04 15:17 52.32293 4.97476 3008 ft 264 kts 165°
2026-05-04 15:17 52.30470 4.97770 3013 ft 265 kts 181°
2026-05-04 15:18 52.28626 4.97700 3008 ft 265 kts 184°
2026-05-04 15:18 52.26857 4.97020 3008 ft 262 kts 210°
2026-05-04 15:18 52.25512 4.95070 3009 ft 260 kts 237°
2026-05-04 15:19 52.23723 4.89951 3008 ft 260 kts 243°
2026-05-04 15:19 52.22873 4.87336 3008 ft 260 kts 243°
2026-05-04 15:19 52.21190 4.82175 2991 ft 260 kts 243°
2026-05-04 15:20 52.20341 4.79570 2737 ft 259 kts 243°
2026-05-04 15:20 52.19500 4.76976 2356 ft 257 kts 243°
2026-05-04 15:20 52.18664 4.74416 2034 ft 255 kts 243°
2026-05-04 15:20 52.17838 4.71912 2005 ft 242 kts 244°
2026-05-04 15:21 52.17060 4.69585 2003 ft 225 kts 243°
2026-05-04 15:21 52.16328 4.67395 2013 ft 218 kts 243°
2026-05-04 15:21 52.15038 4.62969 2009 ft 215 kts 265°
2026-05-04 15:22 52.15293 4.60653 2015 ft 213 kts 300°
2026-05-04 15:22 52.16331 4.58940 2021 ft 213 kts 328°
2026-05-04 15:22 52.18892 4.56653 2014 ft 211 kts 333°
2026-05-04 15:23 52.20277 4.55892 2007 ft 212 kts 357°
2026-05-04 15:23 52.21713 4.56353 2013 ft 214 kts 26°
2026-05-04 15:23 52.22825 4.57936 2015 ft 216 kts 54°
2026-05-04 15:23 52.23636 4.60009 1908 ft 217 kts 56°
2026-05-04 15:24 52.25220 4.64152 1383 ft 213 kts 56°
2026-05-04 15:24 52.26678 4.67936 870 ft 177 kts 55°
2026-05-04 15:25 52.27299 4.69548 628 ft 160 kts 54°
2026-05-04 15:25 52.27866 4.71016 414 ft 147 kts 53°
2026-05-04 15:25 52.28391 4.72377 236 ft 139 kts 56°
2026-05-04 15:26 52.29417 4.75029 -1 ft 133 kts 57°
2026-05-04 15:26 52.29859 4.76192 -3 ft 101 kts 59°
2026-05-04 15:26 52.30318 4.77320 -4 ft 40 kts 37°
2026-05-04 15:27 52.30434 4.77411 -2 ft 11 kts 21°
2026-05-04 15:27 52.30472 4.77404 -2 ft 0 kts 341°
2026-05-04 15:28 52.30579 4.77491 -1 ft 16 kts 62°
2026-05-04 15:28 52.30672 4.77592 -1 ft 18 kts
2026-05-04 15:28 52.30948 4.77612 -1 ft 22 kts
2026-05-04 15:29 52.31105 4.77625 -1 ft 23 kts
2026-05-04 15:30 52.31570 4.77150 -1 ft 27 kts 264°
2026-05-04 15:30 52.31537 4.76172 -1 ft 30 kts 267°
2026-05-04 15:31 52.31513 4.75516 -1 ft 20 kts 261°
2026-05-04 15:31 52.31413 4.75463 -1 ft 16 kts 174°
2026-05-04 15:32 52.31116 4.75491 -1 ft 12 kts 194°
2026-05-04 15:32 52.31053 4.75511 -1 ft 3 kts 149°
2026-05-04 15:33 52.31045 4.75518 -1 ft 0 kts 149°
2026-05-04 15:35 52.31046 4.75518 -1 ft 0 kts 148°